TimePDT,TemperatureF,Dew PointF,Humidity,Sea Level PressureIn,VisibilityMPH,Wind Direction,Wind SpeedMPH,Gust SpeedMPH,PrecipitationIn,Events,Conditions,WindDirDegrees,DateUTC
12:56 AM,55.0,50.0,83,29.87,10.0,Calm,Calm,-,0.03,Rain,Light Rain,0,2012-10-22 07:56:00
1:56 AM,55.0,50.0,83,29.88,10.0,SSE,3.5,-,0.00,,Overcast,160,2012-10-22 08:56:00
2:56 AM,55.9,48.0,75,29.84,10.0,SE,8.1,-,0.00,,Overcast,130,2012-10-22 09:56:00
3:56 AM,55.9,48.0,75,29.81,10.0,South,6.9,-,0.00,,Overcast,170,2012-10-22 10:56:00
4:56 AM,57.9,46.9,67,29.79,10.0,SSE,11.5,23.0,N/A,,Mostly Cloudy,150,2012-10-22 11:56:00
5:56 AM,57.9,48.0,70,29.78,10.0,SSE,12.7,23.0,0.00,Rain,Light Rain,160,2012-10-22 12:56:00
6:56 AM,55.9,50.0,80,29.78,5.0,SE,12.7,25.3,0.03,Rain,Rain,140,2012-10-22 13:56:00
7:56 AM,54.0,53.1,97,29.78,5.0,SE,17.3,25.3,0.03,Rain,Light Rain,130,2012-10-22 14:56:00
8:22 AM,55.4,53.6,94,29.78,7.0,SE,16.1,25.3,0.00,Rain,Light Rain,130,2012-10-22 15:22:00
8:44 AM,55.4,53.6,94,29.79,5.0,SE,16.1,27.6,0.01,Rain,Light Rain,140,2012-10-22 15:44:00
8:56 AM,55.0,53.1,93,29.81,8.0,SSE,12.7,27.6,0.01,Rain,Light Rain,150,2012-10-22 15:56:00
9:18 AM,55.4,50.0,82,29.84,10.0,SSE,6.9,18.4,0.00,,Overcast,150,2012-10-22 16:18:00
9:56 AM,55.9,51.1,84,29.86,10.0,SE,9.2,-,0.00,,Overcast,130,2012-10-22 16:56:00
10:36 AM,55.4,51.8,88,29.86,1.8,North,6.9,-,0.04,Rain,Heavy Rain,10,2012-10-22 17:36:00
10:41 AM,55.4,51.8,88,29.87,2.5,NNE,6.9,-,0.04,Rain,Light Rain,20,2012-10-22 17:41:00
10:48 AM,55.4,51.8,88,29.87,5.0,NNE,5.8,-,0.05,Rain,Light Rain,30,2012-10-22 17:48:00
10:56 AM,55.9,53.1,90,29.88,4.0,East,5.8,-,0.05,Rain,Light Rain,80,2012-10-22 17:56:00
11:17 AM,57.2,53.6,88,29.88,10.0,Calm,Calm,-,0.00,,Overcast,0,2012-10-22 18:17:00
11:56 AM,60.1,53.1,78,29.90,10.0,Calm,Calm,-,0.00,,Clear,0,2012-10-22 18:56:00
12:56 PM,61.0,53.1,75,29.90,10.0,NNE,5.8,-,N/A,,Scattered Clouds,20,2012-10-22 19:56:00
1:56 PM,63.0,48.0,58,29.89,10.0,North,4.6,-,N/A,,Mostly Cloudy,360,2012-10-22 20:56:00
2:56 PM,64.0,41.0,43,29.90,10.0,West,10.4,18.4,N/A,,Mostly Cloudy,280,2012-10-22 21:56:00
3:56 PM,63.0,41.0,45,29.91,10.0,West,10.4,20.7,N/A,,Mostly Cloudy,260,2012-10-22 22:56:00
4:56 PM,63.0,42.1,46,29.91,10.0,WSW,11.5,-,N/A,,Scattered Clouds,250,2012-10-22 23:56:00
5:56 PM,60.1,43.0,53,29.92,10.0,WSW,3.5,-,N/A,,Clear,240,2012-10-23 00:56:00
6:56 PM,59.0,45.0,60,29.92,10.0,Calm,Calm,-,N/A,,Partly Cloudy,0,2012-10-23 01:56:00
7:56 PM,57.9,45.0,62,29.94,10.0,SE,5.8,-,N/A,,Overcast,130,2012-10-23 02:56:00
8:56 PM,57.9,46.0,65,29.94,10.0,South,5.8,-,N/A,,Scattered Clouds,170,2012-10-23 03:56:00
9:56 PM,57.0,46.0,67,29.95,10.0,SE,4.6,-,N/A,,Mostly Cloudy,140,2012-10-23 04:56:00
10:56 PM,57.0,46.0,67,29.96,10.0,Variable,3.5,-,N/A,,Mostly Cloudy,0,2012-10-23 05:56:00
11:56 PM,57.9,46.9,67,29.96,10.0,ESE,3.5,-,0.00,,Overcast,110,2012-10-23 06:56:00